Overview Statistics Trail Chart Weather Telemetry Raw packets
 

This is the latest recevied weather packets stored in our database for station/object SV9TNF-52. If no packets are shown the sender has not sent any weather packets the latest 10 day(s).

<< 85 86 87 88 89 90 91 >>
Time Temp. Humidity Pressure Rain* Wind** Luminosity Snow
1788055327 22.22° C 68% 1020.7 hPa 0 mm 8.05 m/s, 182° - -
1788055027 22.78° C 68% 1020.7 hPa 0 mm 8.49 m/s, 171° - -
1788054726 22.78° C 68% 1020.7 hPa 0 mm 7.15 m/s, 186° - -
1788054426 22.22° C 68% 1020.7 hPa 0 mm 6.71 m/s, 180° - -
1788054126 22.22° C 68% 1020.7 hPa 0 mm 9.39 m/s, 163° - -
1788053826 22.22° C 68% 1020.7 hPa 0 mm 9.83 m/s, 172° - -
1788053527 22.22° C 67% 1021 hPa 0 mm 4.47 m/s, 186° - -
1788053226 22.78° C 66% 1021 hPa 0 mm 7.15 m/s, 159° - -
1788052926 23.33° C 64% 1020.7 hPa 0 mm 6.26 m/s, 170° - -
1788052626 23.33° C 64% 1020.7 hPa 0 mm 3.13 m/s, 171° - -
1788052326 23.33° C 65% 1020.7 hPa 0 mm 2.68 m/s, 108° - -
1788052026 23.33° C 65% 1021 hPa 0 mm 4.92 m/s, 174° - -
1788051725 22.78° C 66% 1021 hPa 0 mm 8.05 m/s, 143° - -
1788051425 22.78° C 67% 1021 hPa 0 mm 8.05 m/s, 129° - -
1788051125 22.22° C 68% 1021 hPa 0 mm 6.26 m/s, 185° - -
1788050825 21.67° C 67% 1020.7 hPa 0 mm 6.71 m/s, 177° - -
1788050525 22.22° C 66% 1020.7 hPa 0 mm 4.47 m/s, 210° - -
1788050225 22.78° C 66% 1020.7 hPa 0 mm 7.15 m/s, 198° - -
1788049925 22.22° C 67% 1020.7 hPa 0 mm 4.47 m/s, 155° - -
1788049625 22.22° C 66% 1020.7 hPa 0 mm 4.47 m/s, 174° - -
1788049325 22.22° C 66% 1020.7 hPa 0 mm 2.68 m/s, 230° - -
1788049025 22.78° C 66% 1020.7 hPa 0 mm 5.36 m/s, 220° - -
1788048724 22.78° C 65% 1020.7 hPa 0 mm 1.34 m/s, 254° - -
1788048424 23.33° C 64% 1020.7 hPa 0 mm 3.58 m/s, 242° - -
1788048125 23.33° C 64% 1020.7 hPa 0 mm 2.68 m/s, 269° - -

* Rain latest hour (hover to see other rain measurements)
** Current wind speed in m/s (hover to see current wind gust speed)